Погода в Полибине

Россия / Липецкая область     53°30′21″N   38°58′43″E
темп.,
°C
ветер,
м/с
пор.,
м/с
влажн.,
%
обл.,
%
осадки,
мм/ч
давл.,
гПа
погр.,
м
14 апреля, ср
ср1400:00+12юв513577 0.0 1023251
03:00+10ююв3570100 0.0 102279
06:00+9юв3374100 0.0 102231
09:00+12юв4955100 0.0 1021284
12:00+17юв5736100 0.0 1020739
15:00+19юв682547 0.0 10182018
18:00+18ююв473259 0.0 1017201
21:00+14юв484784 0.0 1018129
15 апреля, чт
чт1500:00+11юв375798 0.0 1017101
03:00+10юв365964 0.0 101794
06:00+9юв3467100 0.0 101747
09:00+13в345498 0.0 1016218
12:00+17в5644100 0.0 1015801
15:00+18вюв4539100 0.0 10141545
18:00+17в354578 0.0 1014146
21:00+13ююв3863100 0.0 1015188
16 апреля, пт
пт1600:00+12в2267100 0.1 101518
03:00+11в347092 0.1 101663
06:00+9вюв228177 0.1 101724
09:00+12всв5674100 0.1 1017389
12:00+16в5756100 0.1 10181040
15:00+18вюв6847100 0.1 10171636
18:00+16в4757100 3.3 1017296
21:00+12всв478453 8.3 1019218
17 апреля, сб
сб1700:00+10всв6108995 2.4 1020459
03:00+8св5109450 3.4 1020319
06:00+7св6119439 0.0 1021375
09:00+10всв8118043 0.0 1021589
12:00+13всв9116548 0.0 1021873
15:00+15всв91159100 0.0 10211490
18:00+14всв81262100 0.1 10211079
21:00+11всв71366100 0.1 1023762
18 апреля, вс
вс1800:00+9всв6116783 0.1 1024745
03:00+8всв6116598 0.1 1024428
06:00+7всв51066100 0.0 1025369
09:00+7всв61064100 0.0 1026445
12:00+12всв784597 0.0 10261175
15:00+14всв683751 0.0 10261795
18:00+13всв58425 0.0 1026917
21:00+9св410595 0.0 1028225